Ireland, IN

11:45 PM EDT on August 30, 2016 (GMT -0400)
Huntingburg

Weather History for KHNB - December, 2012

Change the Weather History Date:

Saturday, December 29, 2012

  Actual Average Record
Temperature  
Mean Temperature 28 °F -  
Max Temperature 33 °F 38 °F 60 °F (1996)
Min Temperature 23 °F 25 °F 17 °F (2000)
Degree Days  
Heating Degree Days 36    
Moisture  
Dew Point 24 °F    
Average Humidity 81    
Maximum Humidity 93    
Minimum Humidity 69    
Precipitation  
Precipitation 0.21 in - - ()
Sea Level Pressure  
Sea Level Pressure 30.04 in    
Wind  
Wind Speed 11 mph (NW)    
Max Wind Speed 21 mph    
Max Gust Speed 24 mph    
Averages and records for this station are not official NWS values.
T = Trace of Precipitation, MM = Missing Value Source: NWS Daily Summary

Daily Weather History Graph

Daily Weather History Graph

Search for Another Location

Airport or City:

Trip Planner

Search our weather history database for the weather conditions in past years. The results will help you decide how hot, cold, wet, or windy it might be!

Date:

Astronomy

Dec. 29, 2012 Rise Set
Actual Time 8:04 AM EST 5:36 PM EST
Civil Twilight 7:34 AM EST 6:05 PM EST
Nautical Twilight 7:01 AM EST 6:38 PM EST
Astronomical Twilight 6:29 AM EST 7:11 PM EST
Moon 7:07 PM EST (12/29) 8:38 AM EST (12/29)
Length of Visible Light 10h 31m
Length of Day
9h 32m
Full, 98% of the Moon is Illuminated
Dec 29
Full
Jan 4
Last Quarter
Jan 11
New
Jan 18
First Quarter
Jan 26
Full

Hourly Weather History & Observations

Time (EST) Temp. Windchill Dew Point Humidity Pressure Visibility Wind Dir Wind Speed Gust Speed Precip Events Conditions
12:15 AM 32.0 °F 24.8 °F 28.4 °F 87% 29.79 in - North 8.1 mph - 0.02 in   Overcast
12:35 AM 32.0 °F 26.4 °F 30.2 °F 93% 29.80 in - North 5.8 mph - 0.04 in   Overcast
12:55 AM 32.0 °F 27.5 °F 30.2 °F 93% 29.80 in - North 4.6 mph - 0.06 in   Overcast
1:15 AM 32.0 °F 25.6 °F 28.4 °F 87% 29.78 in - North 6.9 mph - 0.03 in   Overcast
1:35 AM 30.2 °F 24.3 °F 28.4 °F 93% 29.77 in - North 5.8 mph - 0.04 in   Overcast
1:55 AM 30.2 °F 23.4 °F 28.4 °F 93% 29.77 in - North 6.9 mph - 0.05 in   Unknown
2:15 AM 32.0 °F 25.6 °F 28.4 °F 87% 29.78 in - NNW 6.9 mph - 0.02 in   Overcast
2:35 AM 32.0 °F 24.2 °F 28.4 °F 87% 29.79 in - NNW 9.2 mph - 0.03 in   Overcast
2:55 AM 32.0 °F 23.6 °F 28.4 °F 87% 29.80 in - NNW 10.4 mph - 0.05 in   Overcast
3:15 AM 30.2 °F 21.9 °F 28.4 °F 93% 29.81 in - NNW 9.2 mph - N/A   Overcast
3:35 AM 30.2 °F 22.6 °F 28.4 °F 93% 29.81 in - NNW 8.1 mph - 0.01 in   Overcast
3:55 AM 30.2 °F 21.9 °F 28.4 °F 93% 29.82 in - NNW 9.2 mph - 0.03 in   Overcast
4:16 AM 30.2 °F 21.9 °F 28.4 °F 93% 29.83 in - NW 9.2 mph - 0.01 in   Overcast
4:35 AM 30.2 °F 21.9 °F 28.4 °F 93% 29.83 in - NW 9.2 mph - 0.01 in   Overcast
4:55 AM 30.2 °F 21.9 °F 28.4 °F 93% 29.84 in - NW 9.2 mph - 0.02 in   Overcast
5:15 AM 30.2 °F 21.3 °F 28.4 °F 93% 29.84 in - NNW 10.4 mph - N/A   Overcast
6:15 AM 30.2 °F 20.2 °F 26.6 °F 86% 29.87 in - NW 12.7 mph 16.1 mph N/A   Overcast
6:35 AM 30.2 °F 20.2 °F 26.6 °F 86% 29.88 in - NW 12.7 mph - N/A   Overcast
6:55 AM 30.2 °F 20.2 °F 26.6 °F 86% 29.88 in - NW 12.7 mph 18.4 mph N/A   Overcast
7:15 AM 30.2 °F 20.2 °F 26.6 °F 86% 29.91 in - NW 12.7 mph - N/A   Overcast
7:35 AM 30.2 °F 21.9 °F 26.6 °F 86% 29.91 in - NW 9.2 mph - N/A   Overcast
7:55 AM 30.2 °F 21.3 °F 26.6 °F 86% 29.92 in - NW 10.4 mph 16.1 mph N/A   Overcast
8:15 AM 30.2 °F 21.9 °F 28.4 °F 93% 29.92 in - NW 9.2 mph - N/A   Overcast
8:35 AM 30.2 °F 21.9 °F 28.4 °F 93% 29.93 in - NW 9.2 mph - N/A   Overcast
9:15 AM 32.0 °F 24.2 °F 28.4 °F 87% 29.96 in - WNW 9.2 mph - N/A   Overcast
9:35 AM 32.0 °F 23.0 °F 28.4 °F 87% 29.97 in - WNW 11.5 mph - N/A   Overcast
9:55 AM 32.0 °F 23.6 °F 28.4 °F 87% 29.98 in - NW 10.4 mph - N/A   Overcast
10:15 AM 33.8 °F 25.8 °F 28.4 °F 81% 29.99 in - WNW 10.4 mph - N/A   Overcast
10:35 AM 33.8 °F 24.8 °F 28.4 °F 81% 30.01 in - WNW 12.7 mph - N/A   Overcast
10:55 AM 33.8 °F 24.8 °F 28.4 °F 81% 30.01 in - NW 12.7 mph - N/A   Overcast
11:15 AM 33.8 °F 25.8 °F 28.4 °F 81% 30.02 in - WNW 10.4 mph 16.1 mph N/A   Overcast
11:35 AM 33.8 °F 23.9 °F 28.4 °F 81% 30.02 in - WNW 15.0 mph - N/A   Overcast
11:55 AM 32.0 °F 23.0 °F 26.6 °F 80% 30.02 in - NW 11.5 mph - N/A   Overcast
12:15 PM 32.0 °F 20.8 °F 26.6 °F 80% 30.02 in - WNW 17.3 mph - N/A   Overcast
12:35 PM 30.2 °F 18.1 °F 24.8 °F 80% 30.03 in - WNW 18.4 mph - N/A   Overcast
12:55 PM 30.2 °F 19.3 °F 24.8 °F 80% 30.03 in - WNW 15.0 mph - N/A   Overcast
1:15 PM 30.2 °F 17.8 °F 23.0 °F 75% 30.04 in - WNW 19.6 mph - N/A   Overcast
1:55 PM 30.2 °F 19.3 °F 23.0 °F 75% 30.05 in - NW 15.0 mph 20.7 mph N/A   Overcast
2:15 PM 30.2 °F 18.5 °F 23.0 °F 75% 30.05 in - NW 17.3 mph - N/A   Overcast
2:35 PM 30.2 °F 20.2 °F 21.2 °F 69% 30.06 in - NW 12.7 mph 19.6 mph N/A   Overcast
2:55 PM 30.2 °F 19.3 °F 21.2 °F 69% 30.07 in - NW 15.0 mph 24.2 mph N/A   Overcast
3:15 PM 28.4 °F 16.6 °F 21.2 °F 74% 30.08 in - NW 16.1 mph 21.9 mph N/A   Overcast
3:35 PM 28.4 °F 17.5 °F 23.0 °F 80% 30.09 in - NW 13.8 mph 17.3 mph N/A   Overcast
3:55 PM 28.4 °F 17.0 °F 23.0 °F 80% 30.10 in - NW 15.0 mph - N/A   Overcast
4:15 PM 28.4 °F 18.0 °F 23.0 °F 80% 30.11 in - NW 12.7 mph 17.3 mph N/A   Overcast
4:35 PM 28.4 °F 15.1 °F 23.0 °F 80% 30.13 in - NW 20.7 mph - N/A   Overcast
4:55 PM 28.4 °F 15.4 °F 21.2 °F 74% 30.14 in - NW 19.6 mph 24.2 mph N/A   Overcast
5:15 PM 28.4 °F 16.2 °F 19.4 °F 69% 30.15 in - NW 17.3 mph 24.2 mph N/A   Overcast
5:35 PM 28.4 °F 16.2 °F 19.4 °F 69% 30.16 in - NW 17.3 mph 20.7 mph N/A   Overcast
5:55 PM 26.6 °F 15.2 °F 19.4 °F 74% 30.17 in - NW 13.8 mph - N/A   Overcast
6:15 PM 26.6 °F 14.3 °F 19.4 °F 74% 30.18 in - NW 16.1 mph 20.7 mph N/A   Overcast
6:35 PM 26.6 °F 15.7 °F 19.4 °F 74% 30.20 in - WNW 12.7 mph - N/A   Overcast
6:55 PM 26.6 °F 15.7 °F 19.4 °F 74% 30.21 in - WNW 12.7 mph - N/A   Overcast
7:16 PM 26.6 °F 14.3 °F 19.4 °F 74% 30.23 in - WNW 16.1 mph - N/A   Overcast
7:35 PM 26.6 °F 15.2 °F 19.4 °F 74% 30.23 in - NW 13.8 mph - N/A   Overcast
7:55 PM 26.6 °F 14.7 °F 19.4 °F 74% 30.24 in - WNW 15.0 mph 20.7 mph N/A   Overcast
8:15 PM 26.6 °F 15.2 °F 19.4 °F 74% 30.25 in - West 13.8 mph - N/A   Overcast
8:35 PM 26.6 °F 16.2 °F 19.4 °F 74% 30.26 in - WNW 11.5 mph - N/A   Overcast
8:55 PM 26.6 °F 16.8 °F 19.4 °F 74% 30.27 in - West 10.4 mph - N/A   Overcast
9:15 PM 26.6 °F 16.8 °F 19.4 °F 74% 30.28 in - West 10.4 mph - N/A   Overcast
9:35 PM 26.6 °F 15.7 °F 19.4 °F 74% 30.28 in - WNW 12.7 mph - N/A   Overcast
9:55 PM 26.6 °F 16.2 °F 17.6 °F 69% 30.29 in - WNW 11.5 mph - N/A   Overcast
10:15 PM 26.6 °F 16.8 °F 17.6 °F 69% 30.30 in - WNW 10.4 mph - N/A   Overcast
10:35 PM 26.6 °F 15.2 °F 17.6 °F 69% 30.32 in - West 13.8 mph - N/A   Overcast
10:55 PM 26.6 °F 15.2 °F 17.6 °F 69% 30.32 in - WNW 13.8 mph - N/A   Overcast
11:15 PM 26.6 °F 16.2 °F 17.6 °F 69% 30.32 in - WNW 11.5 mph - N/A   Overcast
11:35 PM 24.8 °F 14.0 °F 17.6 °F 74% 30.33 in - WNW 11.5 mph - N/A   Mostly Cloudy
11:55 PM 23.0 °F 13.1 °F 15.8 °F 74% 30.34 in - West 9.2 mph - N/A   Clear